Location: St. Malo Provincial Park
(49.3214°N, 96.9305°W)
Time: 01:17:52
(UTC-05:00)

Daily predictions for brighter satellites

Satellite Brightness Start Highest point End
(mag) Time Altitude Azimuth Time Altitude Azimuth Time Altitude Azimuth
Cosmos 2082 3.9 00:03:38 20° S 00:07:30 54° ESE 00:13:05 10° NE
Cosmos 1862 Rocket 4.1 00:07:35 10° NNW 00:11:51 52° W 00:14:29 21° SSW
IKONOS-2 4.5 00:13:17 27° SSE 00:15:35 86° WSW 00:19:55 10° NNW
CZ-4B R/B 2.7 00:17:43 22° ESE 00:19:16 32° ENE 00:22:24 10° N
Cosmos 1898 Rocket 4.2 00:14:36 10° SW 00:19:40 54° WNW 00:24:48 10° NNE
Cosmos 1048 Rocket 4.1 00:18:05 10° NNW 00:23:27 74° ENE 00:26:43 24° SSE
Cosmos 1125 Rocket 4.0 00:22:54 26° SSE 00:25:33 46° ESE 00:30:37 10° NNE
Cosmos 1689 Rocket 3.4 00:26:12 25° ESE 00:27:26 35° ENE 00:30:30 10° N
Aureole 2 Rocket 4.0 00:27:09 10° N 00:29:40 23° ENE 00:31:09 17° E
Terra 3.8 00:30:16 10° SW 00:33:49 21° W 00:37:23 10° NW
USA 234 4.0 00:27:40 10° E 00:34:00 55° NNE 00:40:22 10° WNW
Cosmos 1626 3.2 00:34:25 18° SW 00:36:51 39° WNW 00:40:25 10° N
Cosmos 1900 4.3 00:33:45 10° NW 00:38:46 77° SW 00:41:20 29° SSE
SeaSat 1 3.0 00:38:15 26° S 00:40:41 46° WSW 00:45:28 10° NW
Cosmos 1869 Rocket 3.6 00:41:45 31° S 00:43:53 75° E 00:48:23 10° NNE
Cosmos 2227 Rocket 2.2 00:39:31 16° SSW 00:44:09 83° WNW 00:49:52 10° NNE
CZ-4C R/B 2.9 00:44:21 41° S 00:45:28 81° WSW 00:49:03 10° NNW
ALOS 2 2.6 00:44:00 31° SSE 00:46:04 83° ENE 00:50:29 10° NNW
Cosmos 2333 Rocket 3.3 00:41:02 10° NW 00:46:07 33° WSW 00:49:11 20° SSW
Cosmos 1241 Rocket 4.4 00:41:25 14° SSW 00:46:55 85° SE 00:53:15 10° NE
Lacrosse 4 Rocket 1.5 00:44:29 10° NW 00:48:54 79° WSW 00:50:55 32° SSE
SL-16 R/B 2.3 00:46:49 10° NNW 00:52:29 69° WSW 00:55:32 28° S
Coronas F rocket 3.8 00:53:28 13° E 00:53:28 13° E 00:54:43 10° ENE
Cosmos 1455 4.5 00:52:26 10° NW 00:54:54 17° W 00:56:59 12° WSW
BREEZE-M DEB (TANK) 3.0 00:44:36 10° WNW 00:54:56 73° SSW 00:57:18 20° ESE
ASTEX 1 3.5 00:57:18 10° N 01:02:12 67° E 01:04:30 31° SSE
Landsat 5 3.6 01:00:18 33° SSE 01:02:19 90° SW 01:06:54 10° NNW
ERBS 2.5 01:03:49 48° SSE 01:04:14 51° SE 01:07:37 10° ENE
Cosmos 372 Rocket 4.2 01:02:10 30° S 01:04:38 57° ESE 01:09:47 10° NNE
NOSS 3-1 (A) 4.2 00:58:59 10° WSW 01:05:00 56° NW 01:11:47 10° NE
Cosmos 158 Rocket 4.0 00:59:40 10° NNW 01:05:03 86° ENE 01:07:53 28° SSE
H-2A R/B 2.4 01:01:13 10° NNE 01:05:23 81° ESE 01:07:11 34° S
Meteor 1-26 Rocket 4.4 01:01:14 10° NNW 01:06:45 62° W 01:09:47 27° SSW
COS B Rocket 4.4 01:03:57 10° NNW 01:07:11 33° W 01:08:54 22° SW
Cosmos 2074 Rocket 4.0 01:06:47 27° S 01:10:30 81° E 01:16:50 10° N
Cosmos 1238 Rocket 4.5 01:06:48 10° N 01:10:42 28° ENE 01:12:49 18° ESE
Cosmos 2297 Rocket 2.3 01:07:31 18° SW 01:11:47 73° WNW 01:17:29 10° NNE
CZ-2C R/B 4.0 01:11:35 17° SE 01:15:42 46° ENE 01:21:03 10° N
CZ-4C R/B 3.3 01:09:28 10° NW 01:16:11 60° NE 01:23:42 10° ESE
Cosmos 2219 Rocket 4.3 01:14:24 10° WNW 01:17:18 14° W 01:20:07 10° SW
Okean 1-7 3.7 01:13:21 10° NNW 01:17:25 42° W 01:19:09 28° SW
Cosmos 1943 4.3 01:12:41 10° NNW 01:18:06 42° NE 01:23:27 10° ESE
CZ-2C R/B 3.2 01:16:10 10° NNE 01:21:13 45° E 01:23:38 27° SSE
COSMOS 2455 3.5 01:16:56 10° NW 01:22:32 41° WSW 01:25:14 27° SSW
Cosmos 2251 Rocket 3.5 01:18:03 10° NNW 01:23:26 88° WSW 01:26:17 28° SSE
Meteor 2-10 Rocket 3.7 01:20:22 10° NNW 01:25:54 88° W 01:28:58 29° S
Cosmos 1603 3.7 01:20:15 10° NNW 01:25:58 89° WSW 01:29:23 25° SSE
Cosmos 1606 3.9 01:22:43 10° N 01:26:17 35° ENE 01:28:05 22° ESE
ATLAS 2AS CENTAUR R/B 3.1 01:19:58 11° SW 01:27:33 83° NW 01:35:46 10° NE
Cosmos 389 Rocket 3.7 01:25:33 10° NNW 01:28:45 30° W 01:29:41 26° WSW
Cosmos 1674 Rocket 3.6 01:27:31 10° N 01:31:57 78° E 01:33:54 33° SSE
Geosat 4.0 01:29:36 10° NNE 01:34:40 74° ESE 01:37:15 29° SSW
Cosmos 2154 Rocket 4.2 01:32:33 26° SSE 01:36:09 65° E 01:42:24 10° NNE
Helios 1A Rocket 2.9 01:32:25 10° NNE 01:36:38 88° W 01:38:19 35° SSW
Meteor 1-10 Rocket 4.3 01:32:54 10° NNW 01:38:52 85° W 01:42:14 28° S
Cosmos 1975 Rocket 4.3 01:36:26 10° N 01:40:29 34° ENE 01:43:13 18° SE
MOS 1-B Rocket 3.8 01:38:15 28° S 01:41:27 74° WSW 01:47:04 10° NNW
Meteor 2-3 Rocket 4.0 01:39:57 25° SSW 01:43:23 65° WNW 01:49:07 10° N
BREEZE-M DEB (TANK) 4.5 01:24:13 10° SW 01:43:26 52° SSE 01:48:28 10° E
Cosmos 1607 3.9 01:37:31 10° NW 01:43:44 89° SW 01:48:30 18° SE
Cosmos 2237 Rocket 4.3 01:41:46 10° WNW 01:44:26 14° W 01:46:53 10° WSW
ATLAS 3B R/B 3.5 01:40:29 10° NW 01:46:37 34° WSW 01:49:26 24° SSW
Cosmos 1892 2.7 01:46:48 39° SSW 01:48:05 72° W 01:51:54 10° N
Cosmos 2184 Rocket 4.3 01:44:40 23° SSW 01:48:37 59° WNW 01:54:44 10° N
USA 238 DEB 3.8 01:42:10 10° NW 01:49:06 62° SW 01:53:37 23° SSE
USA 238 3.8 01:42:16 10° NW 01:49:12 62° SW 01:53:45 23° SSE
Cosmos 1908 Rocket 4.0 01:49:24 30° SSE 01:51:13 50° E 01:55:26 10° NNE
CZ-4B R/B 3.3 01:51:29 19° WSW 01:52:11 20° W 01:54:50 10° NW
Cosmos 921 Rocket 3.5 01:51:16 31° SSE 01:52:43 44° ESE 01:56:45 10° NNE
Cosmos 44 4.2 01:53:21 27° SSE 01:55:30 39° ESE 02:00:33 10° NE
Cosmos 807 4.3 01:53:03 10° NNW 01:56:00 61° W 01:56:35 49° SSW
Cosmos 1782 2.9 01:54:21 10° NNW 01:58:17 61° W 01:59:38 37° SSW
Cosmos 1689 Rocket 4.4 01:59:16 16° WSW 01:59:46 16° W 02:01:56 10° NW
NOSS 2-3 (E) 4.1 01:58:41 23° SW 02:01:57 88° NW 02:08:01 10° NE
Cosmos 2084 Rocket 3.6 02:01:38 37° SSE 02:02:30 45° SE 02:06:09 10° NE
PSLV R/B 3.8 02:01:46 33° SSE 02:03:31 89° SW 02:07:37 10° NNW
Cosmos 2341 Rocket 4.1 02:01:00 26° S 02:04:50 83° E 02:11:16 10° N
Aureole 2 Rocket 3.8 02:02:53 10° NW 02:05:16 22° WSW 02:05:16 22° WSW
Uosat 12 SS-18 rocket 4.2 02:03:53 31° SSW 02:06:08 66° SE 02:10:30 10° NE
BREEZE-M TANK 2.5 02:00:52 10° W 02:07:00 50° S 02:09:40 10° ESE
Sich 1 Rocket 3.6 02:05:17 33° S 02:07:17 87° W 02:11:51 10° N
Cosmos 494 Rocket 4.2 02:02:12 10° NNW 02:07:21 57° WSW 02:09:54 29° S
Cosmos 1340 Rocket 3.4 02:08:03 29° SW 02:09:41 47° WNW 02:13:31 10° N
EROS-A1 4.2 02:14:53 61° NE 02:14:53 61° NE 02:16:54 10° N
USA 234 3.2 02:10:20 10° SE 02:16:53 77° SW 02:23:28 10° WNW
Cosmos 1825 2.4 02:17:09 33° SSE 02:18:38 59° E 02:22:23 10° NNE
Cosmos 962 Rocket 4.5 02:17:01 26° SSW 02:20:43 79° W 02:26:53 10° N
Cosmos 44 Rocket 3.6 02:17:56 21° SW 02:21:26 74° NW 02:26:43 10° NE
BREEZE-M DEB (TANK) 2.6 02:19:50 14° W 02:22:18 87° S 02:30:44 10° E
NOSS 3-2 (C) 4.0 02:15:29 10° NW 02:22:52 90° SW 02:30:52 10° SE
CENTAUR R/B 4.1 02:17:18 10° NW 02:24:27 46° NNE 02:32:12 10° ESE
Coronas F rocket 2.8 02:24:35 25° W 02:25:01 26° WNW 02:27:23 10° NNW
Cosmos 1733 Rocket 4.1 02:23:10 22° SW 02:25:28 37° WNW 02:29:38 10° N
Cosmos 1408 2.7 02:24:16 34° S 02:25:46 71° E 02:29:33 10° NNE
Lacrosse 4 Rocket 3.8 02:25:47 10° W 02:26:53 11° WSW 02:27:15 11° WSW
SL-8 Rocket 4.1 02:24:55 23° S 02:29:00 77° E 02:35:21 10° NNE
Cosmos 2227 Rocket 4.4 02:24:54 10° W 02:29:06 21° NW 02:33:20 10° N
Cosmos 2218 Rocket 4.2 02:28:46 22° S 02:32:56 69° E 02:39:15 10° NNE
Cosmos 1378 Rocket 4.0 02:30:56 10° NNW 02:35:11 48° W 02:37:04 28° SSW
SL-16 R/B 4.3 02:33:47 10° WNW 02:35:31 11° W 02:37:15 10° WSW
Meteor 1-27 Rocket 4.2 02:30:49 10° NNW 02:36:29 51° W 02:39:46 24° SSW
Cosmos 2263 Rocket 2.8 02:33:39 22° S 02:36:59 46° ESE 02:42:24 10° NE
COSMOS 2406 4.3 02:31:42 10° NNW 02:37:17 46° NE 02:42:49 10° SE
Okean 3 3.7 02:34:08 10° NNW 02:38:22 57° W 02:40:21 29° SSW
ERBS 3.9 02:37:58 10° W 02:41:12 35° NNW 02:44:26 10° NE
Cosmos 1862 3.5 02:41:49 29° SSW 02:43:38 60° WNW 02:47:38 10° N
SL-08 R/B 4.1 02:41:41 10° SE 02:46:27 53° ENE 02:51:13 10° N
NOSS 3-2 (A) 4.0 02:40:30 10° NW 02:47:46 62° SW 02:55:36 10° SSE
Meteor 2-13 Rocket 4.5 02:44:39 23° SSW 02:48:37 74° WNW 02:54:47 10° N
NOSS 3-4 (A) 3.9 02:44:56 22° S 02:48:58 54° ESE 02:55:24 10° NE
NOSS 3-4 (C) 3.9 02:45:02 22° S 02:49:03 54° ESE 02:55:29 10° NE
Okean 2 Rocket 3.1 02:47:32 27° SSW 02:50:00 82° W 02:54:34 10° N
Cosmos 1238 Rocket 4.1 02:46:52 10° NNW 02:50:35 27° W 02:52:02 21° WSW
Cosmos 2366 rocket 4.0 02:46:32 21° S 02:50:48 80° E 02:57:01 10° N
JB-3 4.5 02:50:27 10° NNE 02:54:18 62° ESE 02:56:24 25° S
CZ-2C R/B 4.2 02:52:39 21° SW 02:55:40 33° W 03:00:46 10° NNW
Cosmos 2297 Rocket 4.5 02:52:55 10° W 02:56:52 19° NW 03:00:50 10° N
ATLAS 5 CENTAUR R/B 4.3 02:52:34 10° NW 02:57:36 31° NNE 03:02:58 10° E
Cosmos 407 Rocket 4.1 02:53:36 10° NNW 02:58:41 56° ENE 03:03:46 10° SE
Cosmos 1782 Rocket 3.9 02:57:08 25° SW 02:59:30 55° WNW 03:03:50 10° N
CZ-2C R/B 3.9 02:56:46 10° N 03:01:20 30° WNW 03:05:10 13° WSW
Cosmos 1606 4.4 02:59:00 10° NW 03:01:54 21° W 03:03:12 18° WSW
Cosmos 1943 3.8 02:56:53 10° NW 03:02:09 39° WSW 03:05:22 21° SSW
IRS-P3 4.4 02:59:01 10° NNE 03:04:21 61° ESE 03:08:19 18° S
CZ-4C R/B 3.2 02:58:11 10° NW 03:04:47 44° WSW 03:11:13 13° S
Meteor 2-8 Rocket 4.4 03:00:27 10° NNW 03:06:33 78° W 03:11:28 16° S
Cosmos 1727 Rocket 4.0 03:00:23 10° NNW 03:06:37 71° W 03:11:24 18° S
SL-27 R/B 3.8 03:05:25 10° N 03:08:53 41° ENE 03:12:23 10° SE
Landsat 4 3.8 03:08:52 25° S 03:10:53 56° WSW 03:14:39 10° NNW
Meteor 1-18 Rocket 4.3 03:05:48 10° N 03:11:27 83° ENE 03:16:57 11° SSE
PSLV R/B 3.6 03:11:29 10° N 03:15:43 65° WNW 03:18:21 22° SSW
Cosmos 1975 Rocket 4.3 03:14:31 10° NNW 03:18:14 27° W 03:20:21 18° SW
CRYOSAT 2 4.4 03:13:32 10° N 03:18:22 67° W 03:21:44 20° SSW
Cosmos 1867 3.9 03:13:38 10° NW 03:18:53 48° WSW 03:23:55 11° SSE
USA 161 3.3 03:16:35 10° SE 03:19:07 30° ENE 03:21:45 10° N
Cosmos 1242 Rocket 2.6 03:15:49 10° NNW 03:19:17 55° W 03:21:11 23° SSW
ATLAS 2AS CENTAUR R/B 4.4 03:12:28 10° W 03:19:43 37° NNW 03:27:13 10° NE
Resurs 1-4 Rocket 4.1 03:15:51 10° NE 03:19:54 22° E 03:23:56 10° SE
Cosmos 1300 Rocket 4.3 03:23:44 12° SSE 03:27:29 47° E 03:31:42 10° NNE
Cosmos 1536 Rocket 3.7 03:25:59 10° NNW 03:30:17 57° W 03:33:30 17° S
Cosmos 1954 Rocket 4.4 03:27:41 10° NNW 03:32:51 63° ENE 03:37:58 10° SE
BREEZE-M DEB (TANK) 4.3 03:13:11 10° W 03:34:37 89° N 03:39:14 10° E
Cosmos 44 4.3 03:31:46 11° WSW 03:36:45 48° NW 03:42:03 10° NNE
Cosmos 1624 Rocket 4.0 03:33:01 17° SSW 03:37:03 88° ESE 03:42:20 10° NNE
IRAS Rocket 4.2 03:31:41 10° NNE 03:37:14 86° WNW 03:41:52 15° SSW
EO 1 Del DPAF 4.4 03:39:00 10° SE 03:42:43 45° ENE 03:46:28 10° N
NPP 3.7 03:38:21 10° NNE 03:43:46 78° WNW 03:48:21 14° SSW
Okean 1 3.2 03:40:34 10° NNW 03:44:34 77° W 03:48:23 11° S
Cosmos 1812 2.8 03:42:32 10° NNW 03:46:25 63° W 03:49:49 13° S
ADEOS 3.8 03:42:02 10° NNE 03:47:18 72° ESE 03:52:16 11° S
SME Rocket 4.1 03:43:45 10° SE 03:47:19 45° ENE 03:51:27 10° N
Okean 1-7 Rocket 3.7 03:43:10 10° N 03:47:46 89° W 03:52:20 10° S
Cosmos 2151 Rocket 4.1 03:45:11 16° SW 03:48:27 47° WNW 03:52:46 10° N
Iridium 4 Rocket 4.0 03:44:30 10° NNW 03:48:41 38° W 03:52:19 15° SSW
Cosmos 1184 Rocket 4.2 03:46:42 16° WSW 03:48:47 28° WNW 03:51:47 10° N
Meteor 1-20 Rocket 4.3 03:43:57 13° S 03:49:17 88° E 03:55:07 10° NNE
Abrixas rocket 3.5 03:48:12 18° SSW 03:49:57 27° SSE 03:52:51 10° E
ERS-2 2.2 03:47:40 10° N 03:51:23 69° WNW 03:54:19 16° SSW
Cosmos 1000 Rocket 4.5 03:46:38 10° NNW 03:52:45 70° W 03:58:50 10° S
ARIANE 5 R/B 3.2 03:48:14 10° NNE 03:53:06 49° E 03:57:56 10° S
RESURS DK-1 2.5 03:50:29 16° SW 03:53:46 69° WNW 03:57:57 10° NNE
SL-16 R/B 2.8 03:48:28 10° SSE 03:54:42 76° ENE 04:00:56 10° NNW
COSMOS 2487 3.8 03:53:20 10° N 03:56:50 43° ENE 04:00:18 10° SE
Cosmos 489 Rocket 4.5 03:51:38 10° NNW 03:57:55 80° WSW 04:04:08 10° SSE
Cosmos 1452 Rocket 4.0 03:53:20 10° S 03:58:23 57° ESE 04:03:33 10° NNE
USA 234 4.1 03:55:18 10° S 04:00:35 26° SW 04:05:55 10° WNW
Okean O Rocket 4.0 03:57:51 10° NE 04:00:51 18° E 04:03:49 10° SE
CBERS-1 4.2 03:55:56 10° N 04:01:02 65° WNW 04:05:44 12° SSW
Okean 1 Rocket 3.1 04:00:25 11° SSW 04:04:37 83° W 04:09:07 10° N
CZ-2D R/B 2.9 04:03:34 10° NNE 04:08:52 52° E 04:14:11 10° S
GP-B 3.6 04:06:09 10° N 04:10:26 47° W 04:14:34 11° SSW
Cosmos 1023 Rocket 4.5 04:09:20 10° NNW 04:14:28 89° WSW 04:19:33 10° SSE
Cosmos 2123 Rocket 4.1 04:08:42 10° N 04:15:05 83° W 04:21:25 10° S
CENTAUR R/B 3.1 04:08:03 10° NW 04:15:43 70° SW 04:23:54 10° SSE
Cosmos 1605 Rocket 4.3 04:10:30 10° S 04:16:36 69° E 04:22:50 10° NNE
Cosmos 1821 Rocket 4.1 04:11:39 10° SSW 04:18:02 76° W 04:24:29 10° N
Cosmos 1844 Rocket 3.0 04:13:30 10° SSW 04:19:07 66° ESE 04:24:46 10° NNE
Cosmos 1844 4.4 04:15:07 10° S 04:20:36 52° ESE 04:26:10 10° NE
Cosmos 2263 Rocket 3.2 04:15:48 10° WSW 04:21:03 37° NW 04:26:20 10° NNE
COSMOS 2406 3.9 04:16:16 10° NW 04:21:31 36° WSW 04:26:43 10° S
Cosmos 1455 Rocket 4.3 04:27:34 10° SSE 04:31:45 41° E 04:35:57 10° NNE
Cosmos 1140 Rocket 3.5 04:28:53 10° NNW 04:33:59 63° WSW 04:39:02 10° S
Spot 4 Rocket 4.3 04:29:00 10° N 04:34:03 56° WNW 04:39:04 10° SSW
Cosmos 2056 Rocket 4.4 04:29:28 10° SW 04:34:25 38° WNW 04:39:19 10° NNE
Cosmos 1602 3.8 04:31:26 10° SSW 04:35:17 70° W 04:39:09 10° N
Cosmos 2278 Rocket 3.1 04:30:20 10° S 04:35:43 47° ESE 04:41:09 10° NE
Cosmos 1025 Rocket 3.1 04:31:55 10° NNW 04:36:09 58° W 04:40:21 10° S
UNK 3.9 04:32:43 10° S 04:37:15 55° W 04:41:50 10° NNW
Cosmos 1850 Rocket 4.0 04:32:07 10° NNW 04:37:21 76° WSW 04:42:36 10° SSE
Meteor 2-14 Rocket 4.5 04:31:51 10° SSW 04:37:53 75° WNW 04:44:00 10° N
Cosmos 1741 Rocket 4.0 04:32:36 10° NNW 04:37:55 77° WSW 04:43:10 10° SSE
UNK 4.4 04:33:15 10° SW 04:39:14 27° SSE 04:41:54 10° E
NOSS 3-4 (A) 4.4 04:33:52 10° WSW 04:40:04 46° NW 04:46:32 10° NE
NOSS 3-4 (C) 4.4 04:33:57 10° WSW 04:40:09 46° NW 04:46:37 10° NE
ATLAS 5 CENTAUR R/B 2.4 04:37:08 10° NW 04:43:01 90° SSW 04:49:22 10° SE
SL-27 R/B 4.2 04:41:26 10° WNW 04:43:54 17° W 04:46:21 10° SW
Cosmos 1536 2.9 04:41:09 10° SSW 04:45:14 77° WNW 04:49:20 10° N
CZ-4B R/B 4.4 04:41:34 10° NNE 04:46:59 44° E 04:52:23 10° S
